• în România
  • Lista ţărilor
  • Pe 7 zile
  • Temperatura apei
  • Hartă satelitară
  • Meteo pe hartă
  • Widget-uri
  • user-avatar
    Intrare

    Meteo pe oră la Kaposvar

    Astăzi, 15 August, Miercuri

    Timp Temperatura Precipitaţii Vânt Presiune Umiditate
    00:00 +19°C° 0 mm 2 m/s 746 mmHg 86%
    01:00 +18°C° 0 mm 2 m/s 746 mmHg 88%
    02:00 +19°C° 0 mm 2 m/s 746 mmHg 85%
    03:00 +19°C° 0 mm 3 m/s 746 mmHg 81%
    04:00 +19°C° 0 mm 3 m/s 746 mmHg 78%
    05:00 +20°C° 0 mm 4 m/s 747 mmHg 72%
    06:00 +21°C° 0 mm 4 m/s 747 mmHg 67%
    07:00 +22°C° 0 mm 4 m/s 747 mmHg 61%
    08:00 +25°C° 0 mm 5 m/s 747 mmHg 54%
    09:00 +27°C° 0 mm 5 m/s 747 mmHg 48%
    10:00 +29°C° 0 mm 5 m/s 748 mmHg 41%
    11:00 +29°C° 0 mm 5 m/s 747 mmHg 39%
    12:00 +30°C° 0 mm 5 m/s 747 mmHg 37%
    13:00 +30°C° 0 mm 5 m/s 748 mmHg 37%
    14:00 +30°C° 0 mm 5 m/s 748 mmHg 36%
    15:00 +30°C° 0 mm 5 m/s 747 mmHg 36%
    16:00 +30°C° 0 mm 4 m/s 747 mmHg 35%
    17:00 +29°C° 0 mm 4 m/s 747 mmHg 39%
    18:00 +27°C° 0 mm 3 m/s 747 mmHg 44%
    19:00 +26°C° 0 mm 3 m/s 747 mmHg 48%
    20:00 +25°C° 0 mm 3 m/s 748 mmHg 52%
    21:00 +22°C° 0 mm 3 m/s 748 mmHg 55%
    22:00 +21°C° 0 mm 3 m/s 748 mmHg 59%
    23:00 +21°C° 0 mm 2 m/s 748 mmHg 62%

    Mâine, 16 August, Joi

    Timp Temperatura Precipitaţii Vânt Presiune Umiditate
    00:00 +20°C° 0 mm 2 m/s 748 mmHg 65%
    01:00 +20°C° 0 mm 2 m/s 748 mmHg 68%
    02:00 +19°C° 0 mm 2 m/s 748 mmHg 71%
    03:00 +19°C° 0 mm 2 m/s 748 mmHg 73%
    04:00 +18°C° 0 mm 2 m/s 748 mmHg 76%
    05:00 +19°C° 0 mm 2 m/s 748 mmHg 72%
    06:00 +21°C° 0 mm 3 m/s 749 mmHg 68%
    07:00 +22°C° 0 mm 3 m/s 749 mmHg 63%
    08:00 +25°C° 0 mm 3 m/s 749 mmHg 56%
    09:00 +27°C° 0 mm 3 m/s 749 mmHg 49%
    10:00 +29°C° 0 mm 3 m/s 748 mmHg 42%
    11:00 +29°C° 0 mm 3 m/s 748 mmHg 40%
    12:00 +30°C° 0 mm 3 m/s 748 mmHg 38%
    13:00 +31°C° 0 mm 2 m/s 747 mmHg 36%
    14:00 +31°C° 0 mm 2 m/s 747 mmHg 36%
    15:00 +31°C° 0 mm 2 m/s 747 mmHg 36%
    16:00 +30°C° 0 mm 2 m/s 746 mmHg 36%
    17:00 +29°C° 0 mm 2 m/s 746 mmHg 39%
    18:00 +28°C° 0 mm 2 m/s 746 mmHg 42%
    19:00 +27°C° 0 mm 1 m/s 746 mmHg 45%
    20:00 +26°C° 0 mm 1 m/s 746 mmHg 48%
    21:00 +25°C° 0 mm 1 m/s 747 mmHg 50%
    22:00 +25°C° 0 mm 1 m/s 747 mmHg 53%
    23:00 +24°C° 0 mm 1 m/s 747 mmHg 55%

    Poimâine, 17 August, Vineri

    Timp Temperatura Precipitaţii Vânt Presiune Umiditate
    00:00 +23°C° 0 mm 1 m/s 747 mmHg 58%
    01:00 +22°C° 0 mm 1 m/s 747 mmHg 61%
    02:00 +22°C° 0 mm 1 m/s 747 mmHg 63%
    03:00 +21°C° 0 mm 1 m/s 746 mmHg 66%
    04:00 +21°C° 0 mm 1 m/s 746 mmHg 68%
    05:00 +22°C° 0 mm 1 m/s 747 mmHg 65%
    06:00 +24°C° 0 mm 1 m/s 747 mmHg 61%
    07:00 +25°C° 0 mm 1 m/s 747 mmHg 58%
    08:00 +27°C° 0 mm 2 m/s 747 mmHg 51%
    09:00 +29°C° 0 mm 2 m/s 747 mmHg 45%
    10:00 +31°C° 0 mm 2 m/s 747 mmHg 38%
    11:00 +31°C° 0 mm 2 m/s 747 mmHg 37%
    12:00 +32°C° 0 mm 2 m/s 746 mmHg 36%
    13:00 +32°C° 0 mm 2 m/s 746 mmHg 35%
    14:00 +32°C° 0 mm 2 m/s 746 mmHg 35%
    15:00 +32°C° 0 mm 2 m/s 745 mmHg 34%
    16:00 +32°C° 0 mm 2 m/s 745 mmHg 34%
    17:00 +31°C° 0 mm 2 m/s 745 mmHg 37%
    18:00 +29°C° 0 mm 2 m/s 745 mmHg 41%
    19:00 +28°C° 0 mm 1 m/s 745 mmHg 44%
    20:00 +27°C° 0,3 mm 1 m/s 745 mmHg 49%
    21:00 +25°C° 0,3 mm 1 m/s 746 mmHg 54%
    22:00 +24°C° 0,3 mm 1 m/s 746 mmHg 60%
    23:00 +23°C° 0 mm 1 m/s 746 mmHg 61%

    18 August, Sâmbătă

    Timp Temperatura Precipitaţii Vânt Presiune Umiditate
    00:00 +23°C° 0 mm 1 m/s 746 mmHg 63%
    01:00 +22°C° 0 mm 1 m/s 746 mmHg 65%
    02:00 +22°C° 0,1 mm 1 m/s 746 mmHg 66%
    03:00 +22°C° 0,1 mm 1 m/s 746 mmHg 67%
    04:00 +21°C° 0,1 mm 1 m/s 746 mmHg 68%
    05:00 +23°C° 0,2 mm 1 m/s 747 mmHg 64%
    06:00 +24°C° 0,2 mm 1 m/s 747 mmHg 61%
    07:00 +25°C° 0,2 mm 1 m/s 747 mmHg 57%
    08:00 +28°C° 0 mm 1 m/s 747 mmHg 50%
    09:00 +30°C° 0 mm 2 m/s 748 mmHg 43%
    10:00 +32°C° 0 mm 2 m/s 748 mmHg 36%
    11:00 +34°C° 0 mm 2 m/s 748 mmHg 34%
    12:00 +34°C° 0 mm 2 m/s 747 mmHg 33%
    13:00 +34°C° 0 mm 2 m/s 747 mmHg 31%
    14:00 +34°C° 0 mm 2 m/s 747 mmHg 31%
    15:00 +34°C° 0 mm 2 m/s 747 mmHg 31%
    16:00 +34°C° 0 mm 2 m/s 747 mmHg 32%
    17:00 +32°C° 0 mm 2 m/s 747 mmHg 35%
    18:00 +30°C° 0 mm 2 m/s 747 mmHg 37%
    19:00 +29°C° 0 mm 1 m/s 747 mmHg 40%
    20:00 +28°C° 0,2 mm 1 m/s 747 mmHg 43%
    21:00 +27°C° 0,2 mm 2 m/s 748 mmHg 46%
    22:00 +25°C° 0,2 mm 2 m/s 748 mmHg 49%
    23:00 +25°C° 0 mm 1 m/s 748 mmHg 50%

    19 August, Duminică

    Timp Temperatura Precipitaţii Vânt Presiune Umiditate
    00:00 +25°C° 0 mm 1 m/s 748 mmHg 52%
    01:00 +24°C° 0 mm 1 m/s 748 mmHg 53%
    02:00 +24°C° 0 mm 1 m/s 748 mmHg 54%
    03:00 +23°C° 0 mm 1 m/s 748 mmHg 55%
    04:00 +23°C° 0 mm 1 m/s 748 mmHg 56%
    05:00 +24°C° 0 mm 1 m/s 749 mmHg 53%
    06:00 +25°C° 0 mm 2 m/s 749 mmHg 51%
    07:00 +26°C° 0 mm 2 m/s 749 mmHg 49%
    08:00 +29°C° 0 mm 2 m/s 749 mmHg 42%
    09:00 +31°C° 0 mm 3 m/s 749 mmHg 36%
    10:00 +34°C° 0 mm 3 m/s 750 mmHg 30%
    11:00 +35°C° 0 mm 3 m/s 749 mmHg 28%
    12:00 +35°C° 0 mm 3 m/s 749 mmHg 26%
    13:00 +36°C° 0 mm 3 m/s 749 mmHg 25%
    14:00 +36°C° 0 mm 3 m/s 748 mmHg 25%
    15:00 +35°C° 0 mm 2 m/s 748 mmHg 26%
    16:00 +35°C° 0 mm 2 m/s 748 mmHg 27%
    17:00 +32°C° 0 mm 2 m/s 748 mmHg 30%
    18:00 +31°C° 0 mm 2 m/s 748 mmHg 33%
    19:00 +29°C° 0 mm 2 m/s 748 mmHg 36%
    20:00 +28°C° 0 mm 2 m/s 748 mmHg 39%
    21:00 +27°C° 0 mm 2 m/s 748 mmHg 42%
    22:00 +26°C° 0 mm 1 m/s 749 mmHg 45%
    23:00 +25°C° 0 mm 1 m/s 749 mmHg 48%

    20 August, Luni

    Timp Temperatura Precipitaţii Vânt Presiune Umiditate
    00:00 +25°C° 0 mm 1 m/s 748 mmHg 50%
    01:00 +24°C° 0 mm 1 m/s 748 mmHg 52%
    02:00 +23°C° 0 mm 1 m/s 748 mmHg 54%
    03:00 +23°C° 0 mm 2 m/s 748 mmHg 57%
    04:00 +21°C° 0 mm 2 m/s 748 mmHg 60%
    05:00 +23°C° 0 mm 2 m/s 749 mmHg 58%
    06:00 +25°C° 0 mm 2 m/s 749 mmHg 55%
    07:00 +26°C° 0 mm 2 m/s 749 mmHg 53%
    08:00 +28°C° 0 mm 2 m/s 749 mmHg 47%
    09:00 +30°C° 0 mm 2 m/s 749 mmHg 41%
    10:00 +34°C° 0 mm 2 m/s 749 mmHg 35%
    11:00 +34°C° 0 mm 2 m/s 749 mmHg 32%
    12:00 +35°C° 0 mm 2 m/s 749 mmHg 30%
    13:00 +36°C° 0 mm 2 m/s 748 mmHg 28%
    14:00 +36°C° 0 mm 2 m/s 748 mmHg 28%
    15:00 +36°C° 0 mm 2 m/s 748 mmHg 28%
    16:00 +36°C° 0 mm 2 m/s 747 mmHg 27%
    17:00 +34°C° 0 mm 2 m/s 748 mmHg 31%
    18:00 +31°C° 0 mm 1 m/s 748 mmHg 34%
    19:00 +30°C° 0 mm 1 m/s 748 mmHg 37%
    20:00 +29°C° 0 mm 1 m/s 748 mmHg 40%
    21:00 +28°C° 0 mm 1 m/s 748 mmHg 42%
    22:00 +27°C° 0 mm 1 m/s 748 mmHg 45%
    23:00 +26°C° 0 mm 1 m/s 748 mmHg 47%
    Arată mai mult